CW7375 Weather Reports


Display with metric or nautical units.
time (UTC)temp
F
wind
direction
speed
MPH
gust
MPH
rain 1hr
in
rain 24hr
in
rain mn
in
humidity
%
barometer
mb
20200715092823 62 238 0.0 0.0 0.00 0.00 0.00 95 1019.8
20200715092334 62 237 0.0 0.0 0.00 0.00 0.00 95 1019.8
20200715091834 62 238 0.0 0.0 0.00 0.00 0.00 95 1019.8
20200715091323 62 238 0.0 0.0 0.00 0.00 0.00 95 1019.7
20200715090824 62 238 0.0 0.0 0.00 0.00 0.00 95 1019.7
20200715090326 62 238 0.0 0.0 0.00 0.00 0.00 95 1019.8
20200715085830 62 235 0.0 0.0 0.00 0.00 0.00 95 1019.8
20200715085338 62 234 0.0 0.0 0.00 0.00 0.00 94 1019.8
20200715084822 63 234 0.0 0.0 0.00 0.00 0.00 94 1019.8
20200715084332 63 235 0.0 0.0 0.00 0.00 0.00 94 1019.7
20200715083833 63 234 0.0 0.0 0.00 0.00 0.00 94 1019.7
20200715083338 63 235 0.0 0.0 0.00 0.00 0.00 94 1019.7
20200715082825 63 235 0.0 0.0 0.00 0.00 0.00 93 1019.7
20200715082328 63 234 0.0 0.0 0.00 0.00 0.00 93 1019.7
20200715081836 63 235 0.0 0.0 0.00 0.00 0.00 94 1019.7
20200715081321 63 233 0.0 0.0 0.00 0.00 0.00 93 1019.7
20200715080829 63 233 0.0 0.0 0.00 0.00 0.00 93 1019.6
20200715080333 63 233 0.0 0.0 0.00 0.00 0.00 94 1019.6
20200715075836 63 234 0.0 0.0 0.00 0.00 0.00 94 1019.5
20200715075330 63 234 0.0 0.0 0.00 0.00 0.00 94 1019.5
20200715074836 63 234 0.0 0.0 0.00 0.00 0.00 94 1019.5
20200715074325 63 238 0.0 0.0 0.00 0.00 0.00 94 1019.4
20200715073829 63 360 0.0 0.0 0.00 0.00 0.00 95 1019.3
20200715073337 63 238 0.0 0.0 0.00 0.00 0.00 95 1019.3
20200715072822 63 233 0.0 0.0 0.00 0.00 0.00 95 1019.3
20200715072327 63 233 0.0 0.0 0.00 0.00 0.00 95 1019.2
20200715071831 63 233 0.0 0.0 0.00 0.00 0.00 95 1019.2
20200715071335 63 233 0.0 0.0 0.00 0.00 0.00 94 1019.2
20200715070839 64 233 0.0 0.0 0.00 0.00 0.00 94 1019.1
20200715065823 64 233 0.0 0.0 0.00 0.00 0.00 95 1019.0
20200715065336 64 233 0.0 0.0 0.00 0.00 0.00 95 1019.0
20200715064818 64 233 0.0 0.0 0.00 0.00 0.00 95 1019.1
20200715064325 64 233 0.0 0.0 0.00 0.00 0.00 95 1019.1
20200715063827 63 233 0.0 0.0 0.00 0.00 0.00 95 1019.1
20200715063333 63 233 0.0 0.0 0.00 0.00 0.00 95 1019.1
20200715062836 63 233 0.0 0.0 0.00 0.00 0.00 95 1019.1
20200715062333 63 233 0.0 0.0 0.00 0.00 0.00 94 1019.1
20200715061836 63 233 0.0 0.0 0.00 0.00 0.00 94 1019.1
20200715061339 63 233 0.0 0.0 0.00 0.00 0.00 94 1019.0
20200715060840 63 233 0.0 0.0 0.00 0.00 0.00 94 1018.9
20200715060341 64 233 0.0 0.0 0.00 0.00 0.00 93 1019.0
20200715055823 64 233 0.0 0.0 0.00 0.00 0.00 93 1019.0
20200715055335 64 233 0.0 0.0 0.00 0.00 0.00 93 1019.0
20200715054819 64 233 0.0 0.0 0.00 0.00 0.00 92 1019.0
20200715054329 64 233 0.0 0.0 0.00 0.00 0.00 92 1019.0
20200715053830 65 233 0.0 0.0 0.00 0.00 0.00 92 1019.0
20200715053332 65 233 0.0 0.0 0.00 0.00 0.00 92 1018.9
20200715052837 65 233 0.0 0.0 0.00 0.00 0.00 92 1018.9
20200715052324 65 233 0.0 0.0 0.00 0.00 0.00 92 1019.0
20200715051833 65 233 0.0 0.0 0.00 0.00 0.00 92 1019.0
20200715051335 65 233 0.0 0.0 0.00 0.00 0.00 91 1019.1
20200715050837 65 233 0.0 0.0 0.00 0.00 0.00 91 1019.1
20200715050325 65 233 0.0 0.0 0.00 0.00 0.00 91 1019.1
20200715045828 65 233 0.0 2.0 0.00 0.00 0.00 91 1019.1
20200715045332 65 233 0.0 2.0 0.00 0.00 0.00 91 1019.1
20200715044833 65 233 0.0 4.0 0.00 0.00 0.00 91 1019.1
20200715044317 65 233 0.0 4.0 0.00 0.00 0.00 91 1019.0
20200715043826 66 233 0.0 0.0 0.00 0.00 0.00 91 1019.0
20200715043333 66 233 0.0 0.0 0.00 0.00 0.00 91 1019.0
20200715042834 66 232 0.0 0.0 0.00 0.00 0.00 91 1019.1
20200715042338 66 233 0.0 0.0 0.00 0.00 0.00 91 1019.1
20200715041821 66 233 0.0 0.0 0.00 0.00 0.00 90 1019.1
20200715041330 66 233 0.0 0.0 0.00 0.00 0.00 90 1019.2
20200715040832 66 232 0.0 0.0 0.00 0.00 0.00 90 1019.2
20200715040330 66 233 0.0 0.0 0.00 0.00 0.00 89 1019.2
20200715035830 67 233 0.0 0.0 0.00 0.00 0.00 89 1019.2
20200715035321 67 233 0.0 0.0 0.00 0.00 0.00 88 1019.1
20200715034828 67 232 0.0 0.0 0.00 0.00 0.00 88 1019.0
20200715034333 68 233 0.0 0.0 0.00 0.00 0.00 87 1018.9
20200715033839 68 232 0.0 0.0 0.00 0.00 0.00 86 1018.8
20200715033321 67 223 0.0 0.0 0.00 0.00 0.00 88 1018.8
20200715032825 67 224 0.0 0.0 0.00 0.00 0.00 89 1018.8
20200715032330 67 224 0.0 0.0 0.00 0.00 0.00 89 1018.9
20200715031831 67 225 0.0 0.0 0.00 0.00 0.00 89 1018.7
20200715031337 68 225 0.0 0.0 0.00 0.00 0.00 89 1018.8
20200715030820 68 258 0.0 0.0 0.00 0.00 0.00 88 1018.8
20200715030323 68 258 0.0 0.0 0.00 0.00 0.00 88 1018.7
20200715025822 68 258 0.0 0.0 0.00 0.00 0.00 88 1018.7
20200715025324 68 257 0.0 0.0 0.00 0.00 0.00 87 1018.7
20200715024827 69 258 0.0 0.0 0.00 0.00 0.00 87 1018.7
20200715024329 69 297 0.0 0.0 0.00 0.00 0.00 87 1018.7
20200715023838 69 302 0.0 0.0 0.00 0.00 0.00 86 1018.7
20200715023320 70 302 0.0 0.0 0.00 0.00 0.00 85 1018.7
20200715022840 70 303 0.0 0.0 0.00 0.00 0.00 85 1018.7
20200715022341 70 303 0.0 0.0 0.00 0.00 0.00 85 1018.7
20200715021827 70 300 0.0 0.0 0.00 0.00 0.00 84 1018.6
20200715021332 70 298 0.0 0.0 0.00 0.00 0.00 85 1018.6
20200715020836 70 298 0.0 0.0 0.00 0.00 0.00 85 1018.5
20200715020339 70 297 0.0 0.0 0.00 0.00 0.00 85 1018.5
20200715015822 70 296 0.0 0.0 0.00 0.00 0.00 85 1018.5
20200715015324 70 297 0.0 0.0 0.00 0.00 0.00 84 1018.4
20200715014824 71 297 0.0 0.0 0.00 0.00 0.00 84 1018.4
20200715014325 71 299 0.0 0.0 0.00 0.00 0.00 84 1018.3
20200715013827 71 299 0.0 0.0 0.00 0.00 0.00 83 1018.3
20200715013330 72 300 0.0 0.0 0.00 0.00 0.00 83 1018.3
20200715012832 72 300 0.0 0.0 0.00 0.00 0.00 82 1018.2
20200715012337 72 300 0.0 0.0 0.00 0.00 0.00 82 1018.1
20200715011822 72 300 0.0 0.0 0.00 0.00 0.00 81 1018.0
20200715011328 73 300 0.0 0.0 0.00 0.00 0.00 80 1017.9
20200715010831 73 299 0.0 0.0 0.00 0.00 0.00 78 1017.9
20200715010329 73 299 0.0 0.0 0.00 0.00 0.00 77 1017.8
20200715005834 74 299 0.0 0.0 0.00 0.00 0.00 76 1017.7
20200715005337 74 300 0.0 0.0 0.00 0.00 0.00 76 1017.6
20200715004840 74 300 0.0 0.0 0.00 0.00 0.00 75 1017.6
20200715004337 75 299 0.0 0.0 0.00 0.00 0.00 73 1017.5
20200715003838 75 219 0.0 0.0 0.00 0.00 0.00 73 1017.5
20200715003320 76 237 0.0 0.0 0.00 0.00 0.00 73 1017.5
20200715002826 76 237 0.0 0.0 0.00 0.00 0.00 74 1017.5
20200715002331 77 238 0.0 0.0 0.00 0.00 0.00 75 1017.4
20200715001834 78 238 0.0 0.0 0.00 0.00 0.00 75 1017.4
20200715001338 78 237 0.0 0.0 0.00 0.00 0.00 73 1017.2
20200715000821 79 237 0.0 0.0 0.00 0.00 0.00 71 1017.1
20200715000331 80 237 0.0 0.0 0.00 0.00 0.00 69 1017.0
20200714235828 81 238 0.0 0.0 0.00 0.00 0.00 68 1017.0
20200714235334 81 238 0.0 0.0 0.00 0.00 0.00 66 1016.9
20200714234840 83 238 0.0 0.0 0.00 0.00 0.00 60 1016.9
20200714234323 84 238 0.0 0.0 0.00 0.00 0.00 63 1016.8
20200714233828 85 238 0.0 0.0 0.00 0.00 0.00 60 1016.7
20200714233334 85 238 0.0 0.0 0.00 0.00 0.00 55 1016.8
20200714232831 86 238 0.0 0.0 0.00 0.00 0.00 55 1016.7
20200714232334 87 238 0.0 0.0 0.00 0.00 0.00 54 1016.7
20200714231836 88 238 0.0 0.0 0.00 0.00 0.00 48 1016.7
20200714231340 89 238 0.0 0.0 0.00 0.00 0.00 48 1016.7
20200714230823 90 238 0.0 1.0 0.00 0.00 0.00 49 1016.7
20200714230324 90 237 0.0 0.0 0.00 0.00 0.00 48 1016.7
20200714225826 89 238 0.0 0.0 0.00 0.00 0.00 48 1016.6
20200714225327 89 238 0.0 1.0 0.00 0.00 0.00 43 1016.5
20200714224833 89 238 0.0 1.0 0.00 0.00 0.00 44 1016.5
20200714224330 89 237 0.0 1.0 0.00 0.00 0.00 45 1016.5
20200714223832 90 238 0.0 1.0 0.00 0.00 0.00 44 1016.3
20200714223329 90 236 0.0 0.0 0.00 0.00 0.00 41 1016.3
20200714222837 90 236 0.0 0.0 0.00 0.00 0.00 42 1016.2
20200714222325 89 236 0.0 4.0 0.00 0.00 0.00 44 1016.2
20200714221825 89 236 1.0 6.0 0.00 0.00 0.00 42 1016.2
20200714221332 89 295 1.0 4.0 0.00 0.00 0.00 41 1016.2
20200714220821 89 1 0.0 1.0 0.00 0.00 0.00 42 1016.2
20200714220322 88 134 0.0 3.0 0.00 0.00 0.00 46 1016.2
20200714215820 88 138 0.0 3.0 0.00 0.00 0.00 42 1016.2
20200714215330 88 143 0.0 2.0 0.00 0.00 0.00 42 1016.3
20200714214831 89 136 0.0 3.0 0.00 0.00 0.00 41 1016.2
20200714214335 89 152 0.0 3.0 0.00 0.00 0.00 41 1016.2
20200714213837 90 58 0.0 1.0 0.00 0.00 0.00 42 1016.1
20200714213321 89 6 0.0 1.0 0.00 0.00 0.00 41 1016.1
20200714212827 89 91 0.0 4.0 0.00 0.00 0.00 40 1016.0
20200714212326 89 124 1.0 4.0 0.00 0.00 0.00 42 1016.0
20200714211830 89 171 0.0 3.0 0.00 0.00 0.00 40 1016.1
20200714211332 89 119 0.0 3.0 0.00 0.00 0.00 39 1016.1
20200714210838 89 121 0.0 3.0 0.00 0.00 0.00 39 1016.1
20200714210335 90 250 0.0 4.0 0.00 0.00 0.00 39 1016.0
20200714205822 90 250 0.0 7.0 0.00 0.00 0.00 45 1015.9
20200714205325 90 253 2.0 7.0 0.00 0.00 0.00 39 1016.0
20200714204825 90 344 0.0 5.0 0.00 0.00 0.00 44 1016.0
20200714204326 89 231 0.0 6.0 0.00 0.00 0.00 40 1015.9
20200714203826 89 360 3.0 6.0 0.00 0.00 0.00 38 1016.0
20200714203334 90 229 1.0 5.0 0.00 0.00 0.00 40 1015.9
20200714202840 90 326 3.0 5.0 0.00 0.00 0.00 39 1015.9
20200714202328 90 103 1.0 4.0 0.00 0.00 0.00 39 1015.9
20200714201828 91 223 2.0 5.0 0.00 0.00 0.00 41 1015.8
20200714201333 90 233 3.0 5.0 0.00 0.00 0.00 39 1015.9
20200714200837 90 177 0.0 1.0 0.00 0.00 0.00 39 1015.8
20200714200322 90 184 0.0 2.0 0.00 0.00 0.00 40 1015.8
20200714195824 90 174 0.0 3.0 0.00 0.00 0.00 43 1015.9
20200714195329 89 100 0.0 5.0 0.00 0.00 0.00 41 1015.8
20200714194842 89 227 0.0 5.0 0.00 0.00 0.00 43 1015.7
20200714194324 89 237 1.0 4.0 0.00 0.00 0.00 45 1015.8
20200714193827 89 238 1.0 4.0 0.00 0.00 0.00 44 1015.7
20200714193330 88 246 0.0 3.0 0.00 0.00 0.00 45 1015.8
20200714192832 88 247 2.0 6.0 0.00 0.00 0.00 43 1015.7
20200714192336 88 234 3.0 6.0 0.00 0.00 0.00 44 1015.7
20200714191839 89 242 1.0 6.0 0.00 0.00 0.00 47 1015.8
20200714191338 88 235 2.0 6.0 0.00 0.00 0.00 46 1016.0
20200714190839 88 293 0.0 2.0 0.00 0.00 0.00 45 1016.1
20200714190323 88 358 0.0 5.0 0.00 0.00 0.00 45 1016.0
20200714185828 88 352 0.0 6.0 0.00 0.00 0.00 44 1016.1
20200714185336 89 310 1.0 6.0 0.00 0.00 0.00 48 1016.1
20200714184837 88 271 2.0 9.0 0.00 0.00 0.00 47 1016.1
20200714184340 88 238 4.0 9.0 0.00 0.00 0.00 45 1016.1
20200714183821 88 188 3.0 8.0 0.00 0.00 0.00 47 1016.1
20200714183331 88 302 2.0 8.0 0.00 0.00 0.00 45 1016.3
20200714182830 88 302 3.0 8.0 0.00 0.00 0.00 45 1016.4
20200714182336 88 323 1.0 6.0 0.00 0.00 0.00 46 1016.3
20200714181839 87 255 0.0 6.0 0.00 0.00 0.00 49 1016.2
20200714181321 87 218 1.0 6.0 0.00 0.00 0.00 47 1016.4
20200714180827 87 360 0.0 4.0 0.00 0.00 0.00 47 1016.4
20200714180337 86 129 0.0 6.0 0.00 0.00 0.00 50 1016.4
20200714175841 85 212 2.0 6.0 0.00 0.00 0.00 51 1016.5
20200714175327 85 247 1.0 3.0 0.00 0.00 0.00 54 1016.6
20200714174830 85 245 0.0 2.0 0.00 0.00 0.00 53 1016.5
20200714174325 85 282 0.0 6.0 0.00 0.00 0.00 52 1016.5
20200714173832 85 297 2.0 6.0 0.00 0.00 0.00 53 1016.6
20200714173333 85 140 0.0 4.0 0.00 0.00 0.00 56 1016.7
20200714172833 86 140 0.0 4.0 0.00 0.00 0.00 50 1016.6
20200714172321 86 95 1.0 4.0 0.00 0.00 0.00 54 1016.6
20200714171839 86 318 1.0 5.0 0.00 0.00 0.00 51 1016.6
20200714171334 87 360 1.0 5.0 0.00 0.00 0.00 51 1016.5
20200714170839 86 293 1.0 5.0 0.00 0.00 0.00 55 1016.5
20200714170322 85 150 0.0 6.0 0.00 0.00 0.00 55 1016.5
20200714165831 84 75 2.0 6.0 0.00 0.00 0.00 56 1016.4
20200714165332 83 302 1.0 3.0 0.00 0.00 0.00 54 1016.5
20200714164835 83 129 0.0 4.0 0.00 0.00 0.00 55 1016.4
20200714164322 84 122 0.0 6.0 0.00 0.00 0.00 54 1016.4
20200714163832 84 311 2.0 8.0 0.00 0.00 0.00 54 1016.4
20200714163318 85 219 2.0 8.0 0.00 0.00 0.00 53 1016.4
20200714162824 85 297 2.0 6.0 0.00 0.00 0.00 52 1016.5
20200714162324 85 237 1.0 7.0 0.00 0.00 0.00 52 1016.4
20200714161827 85 311 2.0 7.0 0.00 0.00 0.00 53 1016.5
20200714161323 84 360 0.0 5.0 0.00 0.00 0.00 55 1016.4
20200714160831 83 226 1.0 3.0 0.00 0.00 0.00 60 1016.5
20200714160336 83 152 1.0 5.0 0.00 0.00 0.00 58 1016.5
20200714155837 83 123 1.0 8.0 0.00 0.00 0.00 59 1016.5
20200714155322 83 250 2.0 8.0 0.00 0.00 0.00 58 1016.6
20200714154825 83 212 0.0 2.0 0.00 0.00 0.00 61 1016.7
20200714154329 83 146 0.0 1.0 0.00 0.00 0.00 61 1016.6
20200714153829 83 246 0.0 3.0 0.00 0.00 0.00 61 1016.6
20200714153332 82 247 0.0 4.0 0.00 0.00 0.00 62 1016.6
20200714152835 82 324 0.0 3.0 0.00 0.00 0.00 62 1016.6
20200714152338 82 110 0.0 6.0 0.00 0.00 0.00 60 1016.7
20200714151822 82 119 1.0 6.0 0.00 0.00 0.00 61 1016.7
20200714151326 82 264 0.0 6.0 0.00 0.00 0.00 62 1016.6
20200714150816 82 323 3.0 6.0 0.00 0.00 0.00 59 1016.7
20200714150326 82 148 0.0 3.0 0.00 0.00 0.00 61 1016.7
20200714145831 82 98 0.0 3.0 0.00 0.00 0.00 60 1016.8
20200714145319 81 320 0.0 2.0 0.00 0.00 0.00 61 1016.8
20200714144827 81 139 0.0 6.0 0.00 0.00 0.00 62 1016.8
20200714144331 80 131 0.0 7.0 0.00 0.00 0.00 63 1016.8
20200714143835 80 101 1.0 7.0 0.00 0.00 0.00 62 1016.9
20200714143339 80 168 0.0 4.0 0.00 0.00 0.00 63 1016.9
20200714142820 80 159 1.0 6.0 0.00 0.00 0.00 63 1016.9
20200714142328 80 161 3.0 6.0 0.00 0.00 0.00 61 1016.9
20200714141829 80 161 0.0 3.0 0.00 0.00 0.00 62 1016.8
20200714141333 80 103 0.0 5.0 0.00 0.00 0.00 65 1016.8
20200714140821 79 121 1.0 5.0 0.00 0.00 0.00 67 1016.8
20200714140328 79 130 0.0 4.0 0.00 0.00 0.00 65 1016.8
20200714135815 79 131 0.0 4.0 0.00 0.00 0.00 66 1016.9
20200714135326 78 105 0.0 5.0 0.00 0.00 0.00 68 1016.9
20200714134833 78 332 1.0 5.0 0.00 0.00 0.00 69 1016.8
20200714134338 77 133 0.0 4.0 0.00 0.00 0.00 72 1016.9
20200714133824 76 142 0.0 3.0 0.00 0.00 0.00 73 1016.8
20200714133325 76 154 0.0 5.0 0.00 0.00 0.00 71 1016.9
20200714132829 76 259 0.0 5.0 0.00 0.00 0.00 71 1016.9
20200714132335 76 114 0.0 4.0 0.00 0.00 0.00 72 1017.0
20200714131820 76 129 0.0 5.0 0.00 0.00 0.00 73 1016.9
20200714131327 75 134 0.0 2.0 0.00 0.00 0.00 75 1016.9
20200714130830 74 124 0.0 0.0 0.00 0.00 0.00 75 1016.9
20200714130323 74 203 0.0 0.0 0.00 0.00 0.00 75 1016.9
20200714125825 74 203 0.0 0.0 0.00 0.00 0.00 75 1016.8
20200714125328 74 124 0.0 2.0 0.00 0.00 0.00 75 1016.8
20200714124831 75 125 1.0 5.0 0.00 0.00 0.00 74 1016.7
20200714124336 75 138 0.0 5.0 0.00 0.00 0.00 77 1016.7
20200714123819 75 158 0.0 4.0 0.00 0.00 0.00 74 1016.6
20200714123326 75 119 0.0 4.0 0.00 0.00 0.00 74 1016.5
20200714122830 75 105 0.0 5.0 0.00 0.00 0.00 74 1016.4
20200714122339 75 143 0.0 6.0 0.00 0.00 0.00 76 1016.3
20200714121822 75 129 1.0 6.0 0.00 0.00 0.00 77 1016.3
20200714121329 74 105 0.0 0.0 0.00 0.00 0.00 77 1016.2
20200714120830 74 89 0.0 0.0 0.00 0.00 0.00 80 1016.1
20200714120335 73 136 0.0 0.0 0.00 0.00 0.00 83 1016.2
20200714115838 73 266 0.0 0.0 0.00 0.00 0.00 85 1016.1
20200714115321 72 140 0.0 0.0 0.00 0.00 0.00 86 1016.0
20200714114827 71 311 0.0 0.0 0.00 0.00 0.00 89 1015.9
20200714114331 70 229 0.0 0.0 0.00 0.00 0.00 89 1015.9
20200714113834 70 229 0.0 0.0 0.00 0.00 0.00 91 1015.9
20200714113328 69 265 0.0 0.0 0.00 0.00 0.00 93 1015.8
20200714112837 68 265 0.0 0.0 0.00 0.00 0.00 94 1015.8
20200714112337 67 265 0.0 0.0 0.00 0.00 0.00 95 1015.8
20200714111824 67 265 0.0 0.0 0.00 0.00 0.00 95 1015.8
20200714111330 67 265 0.0 0.0 0.00 0.00 0.00 95 1015.7
20200714110841 67 265 0.0 0.0 0.00 0.00 0.00 95 1015.8
20200714110342 67 265 0.0 0.0 0.00 0.00 0.00 95 1015.7
20200714105822 67 265 0.0 0.0 0.00 0.00 0.00 95 1015.6
20200714105328 67 264 0.0 0.0 0.00 0.00 0.00 95 1015.6
20200714104831 67 265 0.0 0.0 0.00 0.00 0.00 95 1015.5
20200714104335 67 265 0.0 0.0 0.00 0.00 0.00 95 1015.3
20200714103821 67 265 0.0 0.0 0.00 0.00 0.00 95 1015.2
20200714103327 67 265 0.0 0.0 0.00 0.00 0.00 96 1015.1
20200714102830 66 264 0.0 0.0 0.00 0.00 0.00 96 1015.1
20200714102329 66 264 0.0 0.0 0.00 0.00 0.00 96 1015.1
20200714101837 66 265 0.0 0.0 0.00 0.00 0.00 97 1015.1
20200714101318 66 265 0.0 0.0 0.00 0.00 0.00 97 1015.0
20200714100827 66 265 0.0 0.0 0.00 0.00 0.00 97 1014.9
20200714100331 66 265 0.0 0.0 0.00 0.00 0.00 97 1014.9
20200714095838 66 265 0.0 0.0 0.00 0.00 0.00 97 1014.8
20200714095326 66 265 0.0 0.0 0.00 0.00 0.00 97 1014.8
20200714094832 66 264 0.0 0.0 0.00 0.00 0.00 97 1014.9
20200714094317 66 264 0.0 0.0 0.00 0.00 0.00 97 1014.9
20200714093823 66 265 0.0 0.0 0.00 0.00 0.00 96 1014.8
20200714093326 66 265 0.0 0.0 0.00 0.00 0.00 96 1014.7